Simultaneous Nadir Overpasses (SNOs) Predictions

Prediction of SNOs between AQUA and GOES-15 Satellite Orbit:

Table of predicted SNOs for the next 14.0 days since TLE Epoch: 5/15/2021
Index Date Time (AQUA) AQUA Lat,Lon GOES-15 Lat,Lon Distance(km) Time Diff (sec)
1 05/16/2021 22:10:05 -0.17,-128.64 -0.06,-128.14 56.35 80
2 05/18/2021 21:57:54 0.49,-125.69 -0.07,-128.19 284.81 80
3 05/19/2021 10:19:08 0.63,-130.84 0.07,-128.27 292.64 80
4 05/21/2021 10:06:57 -0.03,-127.89 0.07,-128.30 47.88 80
5 05/23/2021 09:54:46 -0.64,-124.92 0.07,-128.34 387.91 80
6 05/23/2021 22:16:09 -0.48,-130.11 -0.07,-128.28 209.45 80
7 05/25/2021 22:03:58 0.20,-127.17 -0.07,-128.30 129.86 80
8 05/26/2021 10:25:13 0.93,-132.32 0.07,-128.39 447.22 80
9 05/27/2021 21:51:46 0.82,-124.21 -0.06,-128.32 468.44 80
10 05/28/2021 10:13:02 0.25,-129.37 0.06,-128.41 108.95 80
